STARLINK-2572

decayed
NORAD ID: 48372 Int'l Des: 2021-038 Owner: SPXS Country: US Constellation: starlink
LEOCIRCULAR
Group

About STARLINK-2572

Description loading...

Altitude History

Altitude vs Time

uPlot chart will show altitude changes over time

Two-Line Element Set

1 48372U 21038V 24242.22869466 .30919481 12358-4 29305-2 0 9994
2 48372 53.0309 254.4381 0003527 7.3411 79.5747 16.37788371184773
Epoch: Aug 29, 2024 • Age: 9010 hours

Current Status

Position data unavailable
Launch Date May 4, 2021
Age 4.3 years
Decay Date Aug 29, 2024
Type internet

Technical Details

Classification Payload
Mass 260.00 kg
Dry Mass 248.00 kg
Total Mass 260.00 kg
Length 0.20 m
Diameter 2.80 m
Span 9.00 m
Shape Box + pan
Manufacturer SPXS
Bus Type Starlink
Phase Status Unknown Transfer Status
Owner/State SPXS/US

Large Constellations

Loading constellations...